Weather in Белые Воды

Kazakhstan     42˚25′01″N   69˚49′58″E
temp.,
°C
wind,
m/s
gust,
m/s
humid.,
%
clouds,
%
prec.,
mm/h
press.,
hPa
HPBL,
m
16 january, sat
sat1623:00+5˚ese33500 0.0 101723
02:00+6˚ese33450 0.0 101622
05:00+6˚ese33420 0.0 101522
08:00+6˚ese34360 0.0 101624
11:00+10˚ese33360 0.0 101533
14:00+12˚se124632 0.0 101524
17:00+7˚sse115636 0.0 101622
20:00+5˚se235736 0.0 101822
17 january, sun
sun1723:00+5˚sse225247 0.0 101922
02:00+4˚ese22513 0.0 101922
05:00+3˚ese22502 0.0 102022
08:00+3˚e34490 0.0 102028
11:00+8˚ene24430 0.0 1018120
14:00+10˚ne37480 0.0 1015311
17:00+5˚ene445819 0.0 101368
20:00+3˚e345866 0.0 101356
18 january, mon
mon1823:00+3˚e445477 0.0 101259
02:00+3˚e344999 0.0 101149
05:00+4˚e2344100 0.0 101024
08:00+4˚ese2240100 0.0 101122
11:00+8˚ese2238100 0.0 101138
14:00+11˚e2336100 0.0 101045
17:00+9˚sse3338100 0.0 101122
20:00+10˚sse61445100 0.0 1012221
19 january, tue
tue1923:00+7˚e3358100 0.0 101235
02:00+8˚ese5956100 0.0 1012139
05:00+8˚s2355100 0.0 101340
08:00+6˚sse116399 0.0 101522
11:00+10˚sw4114897 0.0 1016583
14:00+13˚wsw7113772 0.0 10161043
17:00+10˚sw4104978 0.0 1017237
20:00+9˚ssw3856100 0.0 1019153
20 january, wed
wed2023:00+7˚e4570100 0.1 102085
02:00+5˚sse117348 0.0 102022
05:00+5˚w127175 0.0 102123
08:00+4˚e236986 0.0 102126
11:00+9˚e345193 0.0 1020141
14:00+12˚e3541100 0.0 1016255
17:00+9˚e3449100 0.0 101558
20:00+8˚ese3442100 0.0 101438